TimeMDT,TemperatureF,Dew PointF,Humidity,Sea Level PressureIn,VisibilityMPH,Wind Direction,Wind SpeedMPH,Gust SpeedMPH,PrecipitationIn,Events,Conditions,WindDirDegrees,DateUTC
12:53 AM,73.9,44.1,34,29.79,10.0,West,8.1,-,N/A,,Clear,280,2013-08-20 06:53:00
1:53 AM,66.0,44.1,45,29.80,10.0,SW,6.9,-,N/A,,Clear,230,2013-08-20 07:53:00
2:53 AM,66.0,45.0,47,29.80,10.0,SSW,3.5,-,N/A,,Clear,210,2013-08-20 08:53:00
3:53 AM,62.1,45.0,53,29.81,10.0,South,6.9,-,N/A,,Clear,190,2013-08-20 09:53:00
4:53 AM,59.0,46.0,62,29.83,10.0,SW,3.5,-,N/A,,Clear,220,2013-08-20 10:53:00
5:53 AM,57.9,45.0,62,29.84,10.0,SW,10.4,-,N/A,,Clear,230,2013-08-20 11:53:00
6:53 AM,57.9,46.0,65,29.86,10.0,SW,10.4,-,N/A,,Clear,230,2013-08-20 12:53:00
7:53 AM,63.0,46.9,56,29.88,10.0,WSW,9.2,-,N/A,,Clear,240,2013-08-20 13:53:00
8:53 AM,70.0,46.9,44,29.88,10.0,WSW,11.5,-,N/A,,Clear,240,2013-08-20 14:53:00
9:53 AM,75.9,45.0,33,29.88,10.0,SW,11.5,-,N/A,,Clear,230,2013-08-20 15:53:00
10:53 AM,80.1,44.1,28,29.87,10.0,West,5.8,-,N/A,,Clear,280,2013-08-20 16:53:00
11:53 AM,82.0,44.1,26,29.86,10.0,WSW,15.0,-,N/A,,Clear,240,2013-08-20 17:53:00
12:53 PM,84.0,44.1,25,29.84,10.0,SW,16.1,21.9,N/A,,Partly Cloudy,230,2013-08-20 18:53:00
1:53 PM,84.9,41.0,21,29.83,10.0,West,13.8,25.3,N/A,,Clear,280,2013-08-20 19:53:00
2:53 PM,87.1,37.9,18,29.81,10.0,West,11.5,21.9,N/A,,Clear,270,2013-08-20 20:53:00
3:53 PM,88.0,36.0,16,29.80,10.0,WSW,18.4,23.0,N/A,,Clear,250,2013-08-20 21:53:00
4:53 PM,88.0,37.0,16,29.80,10.0,WSW,15.0,-,N/A,,Partly Cloudy,250,2013-08-20 22:53:00
5:53 PM,88.0,36.0,16,29.79,10.0,West,17.3,23.0,N/A,,Clear,260,2013-08-20 23:53:00
6:53 PM,86.0,34.0,16,29.79,10.0,West,13.8,-,N/A,,Clear,280,2013-08-21 00:53:00
7:53 PM,81.0,36.0,20,29.80,10.0,WNW,9.2,-,N/A,,Clear,300,2013-08-21 01:53:00
8:53 PM,73.9,37.9,27,29.83,10.0,NE,5.8,-,N/A,,Clear,50,2013-08-21 02:53:00
9:53 PM,71.1,39.9,32,29.86,10.0,ENE,10.4,-,N/A,,Clear,60,2013-08-21 03:53:00
10:53 PM,64.9,43.0,45,29.88,10.0,East,5.8,-,N/A,,Clear,90,2013-08-21 04:53:00
11:53 PM,59.0,42.1,53,29.91,10.0,NNW,3.5,-,N/A,,Clear,340,2013-08-21 05:53:00